Time,TemperatureF,DewpointF,PressureIn,WindDirection,WindDirectionDegrees,WindSpeedMPH,WindSpeedGustMPH,Humidity,HourlyPrecipIn,Conditions,Clouds,dailyrainin,SoftwareType,DateUTC
2013-02-18 00:02:00,43.9,30.5,29.83,North,0,0.0,0.0,59,0.00,,,0.00,WUHU21623XXSP,2013-02-18 06:02:00,
2013-02-18 00:08:00,43.9,30.9,29.82,North,0,0.0,0.0,60,0.00,,,0.00,WUHU21623XXSP,2013-02-18 06:08:00,
2013-02-18 00:13:00,43.9,30.9,29.82,North,0,0.0,0.0,60,0.00,,,0.00,WUHU21623XXSP,2013-02-18 06:13:00,
2013-02-18 00:18:00,43.7,30.7,29.82,North,0,0.0,0.0,60,0.00,,,0.00,WUHU21623XXSP,2013-02-18 06:18:00,
2013-02-18 00:23:00,43.7,30.9,29.82,North,0,0.0,0.0,60,0.00,,,0.00,WUHU21623XXSP,2013-02-18 06:23:00,
2013-02-18 00:28:00,43.7,30.7,29.82,North,0,0.0,0.0,60,0.00,,,0.00,WUHU21623XXSP,2013-02-18 06:28:00,
2013-02-18 00:33:00,43.7,31.1,29.82,North,0,0.0,0.0,61,0.00,,,0.00,WUHU21623XXSP,2013-02-18 06:33:00,
2013-02-18 00:38:00,43.7,31.1,29.82,North,0,0.0,0.0,61,0.00,,,0.00,WUHU21623XXSP,2013-02-18 06:38:00,
2013-02-18 00:43:00,43.7,31.1,29.82,North,0,0.0,0.0,61,0.00,,,0.00,WUHU21623XXSP,2013-02-18 06:43:00,
2013-02-18 00:48:00,43.5,31.3,29.82,North,0,0.0,0.0,62,0.00,,,0.00,WUHU21623XXSP,2013-02-18 06:48:00,
2013-02-18 00:53:00,43.5,31.3,29.82,North,0,0.0,0.0,62,0.00,,,0.00,WUHU21623XXSP,2013-02-18 06:53:00,
2013-02-18 00:58:00,43.5,31.3,29.82,North,0,0.0,0.0,62,0.00,,,0.00,WUHU21623XXSP,2013-02-18 06:58:00,
2013-02-18 01:03:00,43.3,31.2,29.82,North,0,0.0,0.0,62,0.00,,,0.00,WUHU21623XXSP,2013-02-18 07:03:00,
2013-02-18 01:08:00,43.3,31.6,29.82,North,0,0.0,0.0,63,0.00,,,0.00,WUHU21623XXSP,2013-02-18 07:08:00,
2013-02-18 01:13:00,43.3,31.6,29.81,North,0,0.0,0.0,63,0.00,,,0.00,WUHU21623XXSP,2013-02-18 07:13:00,
2013-02-18 01:18:00,43.3,31.6,29.81,North,0,0.0,0.0,63,0.00,,,0.00,WUHU21623XXSP,2013-02-18 07:18:00,
2013-02-18 01:23:00,43.2,31.4,29.80,North,0,0.0,0.0,63,0.00,,,0.00,WUHU21623XXSP,2013-02-18 07:23:00,
2013-02-18 01:28:00,43.2,31.8,29.80,North,0,0.0,0.0,64,0.00,,,0.00,WUHU21623XXSP,2013-02-18 07:28:00,
2013-02-18 01:33:00,43.2,31.8,29.80,North,0,0.0,0.0,64,0.00,,,0.00,WUHU21623XXSP,2013-02-18 07:33:00,
2013-02-18 01:38:00,43.2,31.8,29.80,North,0,0.0,0.0,64,0.00,,,0.00,WUHU21623XXSP,2013-02-18 07:38:00,
2013-02-18 01:43:00,43.2,31.8,29.80,North,0,0.0,0.0,64,0.00,,,0.00,WUHU21623XXSP,2013-02-18 07:43:00,
2013-02-18 01:48:00,43.0,31.6,29.80,North,0,0.0,0.0,64,0.00,,,0.00,WUHU21623XXSP,2013-02-18 07:48:00,
2013-02-18 01:53:00,43.0,32.0,29.80,North,0,0.0,0.0,65,0.00,,,0.00,WUHU21623XXSP,2013-02-18 07:53:00,
2013-02-18 01:58:00,43.2,32.2,29.79,North,0,0.0,0.0,65,0.00,,,0.00,WUHU21623XXSP,2013-02-18 07:58:00,
2013-02-18 02:03:00,43.2,32.2,29.79,North,0,0.0,0.0,65,0.00,,,0.00,WUHU21623XXSP,2013-02-18 08:03:00,
2013-02-18 02:08:00,43.2,32.2,29.79,North,0,0.0,0.0,65,0.00,,,0.00,WUHU21623XXSP,2013-02-18 08:08:00,
2013-02-18 02:13:00,43.3,32.3,29.79,North,0,0.0,0.0,65,0.00,,,0.00,WUHU21623XXSP,2013-02-18 08:13:00,
2013-02-18 02:18:00,43.5,32.3,29.78,North,0,0.0,0.0,65,0.00,,,0.00,WUHU21623XXSP,2013-02-18 08:18:00,
2013-02-18 02:23:00,43.5,32.5,29.78,North,0,0.0,0.0,65,0.00,,,0.00,WUHU21623XXSP,2013-02-18 08:23:00,
2013-02-18 02:28:00,43.5,32.5,29.78,North,0,0.0,0.0,65,0.00,,,0.00,WUHU21623XXSP,2013-02-18 08:28:00,
2013-02-18 02:33:00,43.5,32.5,29.78,North,0,0.0,0.0,65,0.00,,,0.00,WUHU21623XXSP,2013-02-18 08:33:00,
2013-02-18 02:38:00,43.5,32.5,29.78,North,0,0.0,0.0,65,0.00,,,0.00,WUHU21623XXSP,2013-02-18 08:38:00,
2013-02-18 02:43:00,43.5,32.5,29.77,North,0,0.0,0.0,65,0.00,,,0.00,WUHU21623XXSP,2013-02-18 08:43:00,
2013-02-18 02:48:00,43.5,32.5,29.77,North,0,0.0,0.0,65,0.00,,,0.00,WUHU21623XXSP,2013-02-18 08:48:00,
2013-02-18 02:53:00,43.5,32.5,29.77,North,0,0.0,0.0,65,0.00,,,0.00,WUHU21623XXSP,2013-02-18 08:53:00,
2013-02-18 02:58:00,43.5,32.5,29.76,North,0,0.0,0.0,65,0.00,,,0.00,WUHU21623XXSP,2013-02-18 08:58:00,
2013-02-18 03:03:00,43.5,32.9,29.76,North,0,0.0,0.0,66,0.00,,,0.00,WUHU21623XXSP,2013-02-18 09:03:00,
2013-02-18 03:08:00,43.5,32.9,29.76,North,0,0.0,0.0,66,0.00,,,0.00,WUHU21623XXSP,2013-02-18 09:08:00,
2013-02-18 03:13:00,43.5,32.9,29.76,North,0,0.0,0.0,66,0.00,,,0.00,WUHU21623XXSP,2013-02-18 09:13:00,
2013-02-18 03:18:00,43.5,32.9,29.76,North,0,0.0,0.0,66,0.00,,,0.00,WUHU21623XXSP,2013-02-18 09:18:00,
2013-02-18 03:23:00,43.5,32.9,29.76,North,0,0.0,0.0,66,0.00,,,0.00,WUHU21623XXSP,2013-02-18 09:23:00,
2013-02-18 03:28:00,43.5,32.9,29.76,North,0,0.0,0.0,66,0.00,,,0.00,WUHU21623XXSP,2013-02-18 09:28:00,
2013-02-18 03:33:00,43.5,32.9,29.76,North,0,0.0,0.0,66,0.00,,,0.00,WUHU21623XXSP,2013-02-18 09:33:00,
2013-02-18 03:38:00,43.3,32.7,29.75,North,0,0.0,0.0,66,0.00,,,0.00,WUHU21623XXSP,2013-02-18 09:38:00,
2013-02-18 03:43:00,43.3,32.7,29.75,North,0,0.0,0.0,66,0.00,,,0.00,WUHU21623XXSP,2013-02-18 09:43:00,
2013-02-18 03:48:00,43.3,32.7,29.74,North,0,0.0,0.0,67,0.00,,,0.00,WUHU21623XXSP,2013-02-18 09:48:00,
2013-02-18 03:53:00,43.2,33.1,29.74,North,0,0.0,0.0,66,0.00,,,0.00,WUHU21623XXSP,2013-02-18 09:53:00,
2013-02-18 03:58:00,43.2,32.5,29.74,North,0,0.0,0.0,66,0.00,,,0.00,WUHU21623XXSP,2013-02-18 09:58:00,
2013-02-18 04:03:00,43.2,32.5,29.74,North,0,0.0,0.0,66,0.00,,,0.00,WUHU21623XXSP,2013-02-18 10:03:00,
2013-02-18 04:08:00,43.0,32.4,29.74,North,0,0.0,0.0,67,0.00,,,0.00,WUHU21623XXSP,2013-02-18 10:08:00,
2013-02-18 04:13:00,43.0,32.8,29.74,North,0,0.0,0.0,67,0.00,,,0.00,WUHU21623XXSP,2013-02-18 10:13:00,
2013-02-18 04:18:00,43.0,32.8,29.73,North,0,0.0,0.0,67,0.00,,,0.00,WUHU21623XXSP,2013-02-18 10:18:00,
2013-02-18 04:23:00,43.0,32.8,29.73,North,0,0.0,0.0,67,0.00,,,0.00,WUHU21623XXSP,2013-02-18 10:23:00,
2013-02-18 04:28:00,43.0,32.8,29.73,North,0,0.0,0.0,67,0.00,,,0.00,WUHU21623XXSP,2013-02-18 10:28:00,
2013-02-18 04:33:00,43.0,32.8,29.73,North,0,0.0,0.0,67,0.00,,,0.00,WUHU21623XXSP,2013-02-18 10:33:00,
2013-02-18 04:38:00,43.0,32.8,29.73,North,0,0.0,0.0,67,0.00,,,0.00,WUHU21623XXSP,2013-02-18 10:38:00,
2013-02-18 04:43:00,43.2,32.8,29.73,North,0,0.0,0.0,67,0.00,,,0.00,WUHU21623XXSP,2013-02-18 10:43:00,
2013-02-18 04:48:00,43.2,32.9,29.73,North,0,0.0,0.0,67,0.00,,,0.00,WUHU21623XXSP,2013-02-18 10:48:00,
2013-02-18 04:53:00,43.2,32.9,29.73,North,0,0.0,0.0,67,0.00,,,0.00,WUHU21623XXSP,2013-02-18 10:53:00,
2013-02-18 04:58:00,43.2,33.3,29.73,North,0,0.0,0.0,68,0.00,,,0.00,WUHU21623XXSP,2013-02-18 10:58:00,
2013-02-18 05:03:00,43.2,33.3,29.73,North,0,0.0,0.0,68,0.00,,,0.00,WUHU21623XXSP,2013-02-18 11:03:00,
2013-02-18 05:08:00,43.3,33.5,29.73,North,0,0.0,0.0,68,0.00,,,0.00,WUHU21623XXSP,2013-02-18 11:08:00,
2013-02-18 05:13:00,43.5,33.7,29.73,North,0,0.0,0.0,68,0.00,,,0.00,WUHU21623XXSP,2013-02-18 11:13:00,
2013-02-18 05:18:00,43.5,33.7,29.72,North,0,0.0,0.0,68,0.00,,,0.00,WUHU21623XXSP,2013-02-18 11:18:00,
2013-02-18 05:23:00,43.5,33.7,29.72,North,0,0.0,0.0,68,0.00,,,0.00,WUHU21623XXSP,2013-02-18 11:23:00,
2013-02-18 05:28:00,43.5,33.7,29.72,North,0,0.0,0.0,68,0.00,,,0.00,WUHU21623XXSP,2013-02-18 11:28:00,
2013-02-18 05:33:00,43.7,33.8,29.72,North,0,0.0,0.0,68,0.00,,,0.00,WUHU21623XXSP,2013-02-18 11:33:00,
2013-02-18 05:39:00,43.7,33.8,29.71,North,0,0.0,0.0,68,0.00,,,0.00,WUHU21623XXSP,2013-02-18 11:39:00,
2013-02-18 05:44:00,43.9,34.0,29.72,North,0,0.0,0.0,68,0.00,,,0.00,WUHU21623XXSP,2013-02-18 11:44:00,
2013-02-18 05:49:00,44.1,33.8,29.71,North,0,0.0,0.0,67,0.00,,,0.00,WUHU21623XXSP,2013-02-18 11:49:00,
2013-02-18 05:54:00,44.2,33.9,29.71,North,0,0.0,0.0,67,0.00,,,0.00,WUHU21623XXSP,2013-02-18 11:54:00,
2013-02-18 05:59:00,44.2,33.9,29.71,North,0,0.0,0.0,67,0.00,,,0.00,WUHU21623XXSP,2013-02-18 11:59:00,
2013-02-18 06:04:00,44.4,34.1,29.71,North,0,0.0,0.0,67,0.00,,,0.00,WUHU21623XXSP,2013-02-18 12:04:00,
2013-02-18 06:09:00,44.4,34.1,29.71,North,0,0.0,0.0,67,0.00,,,0.00,WUHU21623XXSP,2013-02-18 12:09:00,
2013-02-18 06:14:00,44.4,34.1,29.71,North,0,0.0,0.0,67,0.00,,,0.00,WUHU21623XXSP,2013-02-18 12:14:00,
2013-02-18 06:19:00,44.8,34.8,29.71,North,0,0.0,0.0,68,0.00,,,0.00,WUHU21623XXSP,2013-02-18 12:19:00,
2013-02-18 06:24:00,44.8,34.4,29.71,North,0,0.0,0.0,67,0.00,,,0.00,WUHU21623XXSP,2013-02-18 12:24:00,
2013-02-18 06:29:00,45.0,34.6,29.70,North,0,0.0,0.0,67,0.00,,,0.00,WUHU21623XXSP,2013-02-18 12:29:00,
2013-02-18 06:34:00,45.0,34.6,29.70,North,0,0.0,0.0,67,0.00,,,0.00,WUHU21623XXSP,2013-02-18 12:34:00,
2013-02-18 06:39:00,45.0,34.6,29.70,North,0,0.0,0.0,67,0.00,,,0.00,WUHU21623XXSP,2013-02-18 12:39:00,
2013-02-18 06:44:00,45.1,34.8,29.70,North,0,0.0,0.0,67,0.00,,,0.00,WUHU21623XXSP,2013-02-18 12:44:00,
2013-02-18 06:49:00,45.3,35.0,29.70,North,0,0.0,0.0,67,0.00,,,0.00,WUHU21623XXSP,2013-02-18 12:49:00,
2013-02-18 06:54:00,45.3,35.0,29.70,North,0,0.0,0.0,67,0.00,,,0.00,WUHU21623XXSP,2013-02-18 12:54:00,
2013-02-18 06:59:00,45.5,35.1,29.71,North,0,0.0,0.0,67,0.00,,,0.00,WUHU21623XXSP,2013-02-18 12:59:00,
2013-02-18 07:04:00,45.7,35.3,29.70,North,0,0.0,0.0,67,0.00,,,0.00,WUHU21623XXSP,2013-02-18 13:04:00,
2013-02-18 07:09:00,45.7,35.3,29.70,North,0,0.0,0.0,67,0.00,,,0.00,WUHU21623XXSP,2013-02-18 13:09:00,
2013-02-18 07:14:00,46.0,35.7,29.70,North,0,0.0,0.0,67,0.00,,,0.00,WUHU21623XXSP,2013-02-18 13:14:00,
2013-02-18 07:19:00,46.0,35.7,29.70,North,0,0.0,0.0,67,0.00,,,0.00,WUHU21623XXSP,2013-02-18 13:19:00,
2013-02-18 07:24:00,46.2,35.9,29.70,North,0,0.0,0.0,67,0.00,,,0.00,WUHU21623XXSP,2013-02-18 13:24:00,
2013-02-18 07:29:00,46.6,36.2,29.70,North,0,0.0,0.0,67,0.00,,,0.00,WUHU21623XXSP,2013-02-18 13:29:00,
2013-02-18 07:34:00,46.8,36.2,29.70,North,0,0.0,0.0,67,0.00,,,0.00,WUHU21623XXSP,2013-02-18 13:34:00,
2013-02-18 07:39:00,46.9,36.5,29.70,North,0,0.0,0.0,67,0.00,,,0.00,WUHU21623XXSP,2013-02-18 13:39:00,
2013-02-18 07:44:00,47.1,36.7,29.70,North,0,0.0,0.0,67,0.00,,,0.00,WUHU21623XXSP,2013-02-18 13:44:00,
2013-02-18 07:49:00,47.5,37.0,29.71,North,0,0.0,0.0,67,0.00,,,0.00,WUHU21623XXSP,2013-02-18 13:49:00,
2013-02-18 07:54:00,47.8,37.4,29.71,North,0,0.0,0.0,67,0.00,,,0.00,WUHU21623XXSP,2013-02-18 13:54:00,
2013-02-18 07:59:00,48.0,37.5,29.71,North,0,0.0,0.0,67,0.00,,,0.00,WUHU21623XXSP,2013-02-18 13:59:00,
2013-02-18 08:04:00,48.4,37.5,29.71,North,0,0.0,0.0,66,0.00,,,0.00,WUHU21623XXSP,2013-02-18 14:04:00,
2013-02-18 08:09:00,48.4,37.5,29.70,North,0,0.0,0.0,66,0.00,,,0.00,WUHU21623XXSP,2013-02-18 14:09:00,
2013-02-18 08:14:00,48.7,37.8,29.70,North,0,0.0,0.0,66,0.00,,,0.00,WUHU21623XXSP,2013-02-18 14:14:00,
2013-02-18 08:19:00,48.7,37.8,29.70,North,0,0.0,0.0,66,0.00,,,0.00,WUHU21623XXSP,2013-02-18 14:19:00,
2013-02-18 08:24:00,48.9,38.0,29.70,North,0,0.0,0.0,66,0.00,,,0.00,WUHU21623XXSP,2013-02-18 14:24:00,
2013-02-18 08:29:00,49.1,38.2,29.70,North,0,0.0,0.0,66,0.00,,,0.00,WUHU21623XXSP,2013-02-18 14:29:00,
2013-02-18 08:34:00,49.3,38.4,29.70,North,0,0.0,0.0,66,0.00,,,0.00,WUHU21623XXSP,2013-02-18 14:34:00,
2013-02-18 08:39:00,49.6,38.3,29.70,North,0,0.0,0.0,65,0.00,,,0.00,WUHU21623XXSP,2013-02-18 14:39:00,
2013-02-18 08:44:00,50.0,38.7,29.71,North,0,0.0,0.0,65,0.00,,,0.00,WUHU21623XXSP,2013-02-18 14:44:00,
2013-02-18 08:49:00,50.2,38.8,29.71,North,0,0.0,0.0,65,0.00,,,0.00,WUHU21623XXSP,2013-02-18 14:49:00,
2013-02-18 08:54:00,50.5,39.2,29.71,North,0,0.0,0.0,65,0.00,,,0.00,WUHU21623XXSP,2013-02-18 14:54:00,
2013-02-18 08:59:00,50.7,39.3,29.72,North,0,0.0,0.0,65,0.00,,,0.00,WUHU21623XXSP,2013-02-18 14:59:00,
2013-02-18 09:04:00,50.7,39.3,29.71,North,0,0.0,0.0,65,0.00,,,0.00,WUHU21623XXSP,2013-02-18 15:04:00,
2013-02-18 09:09:00,50.9,39.5,29.72,North,0,0.0,0.0,65,0.00,,,0.00,WUHU21623XXSP,2013-02-18 15:09:00,
2013-02-18 09:14:00,51.1,39.7,29.71,North,0,0.0,0.0,65,0.00,,,0.00,WUHU21623XXSP,2013-02-18 15:14:00,
2013-02-18 09:19:00,51.4,40.0,29.71,North,0,0.0,0.0,65,0.00,,,0.00,WUHU21623XXSP,2013-02-18 15:19:00,
2013-02-18 09:24:00,51.6,40.2,29.71,North,0,0.0,0.0,65,0.00,,,0.00,WUHU21623XXSP,2013-02-18 15:24:00,
2013-02-18 09:29:00,51.8,39.8,29.71,North,0,0.0,0.0,64,0.00,,,0.00,WUHU21623XXSP,2013-02-18 15:29:00,
2013-02-18 09:34:00,52.2,40.3,29.71,North,0,0.0,0.0,64,0.00,,,0.00,WUHU21623XXSP,2013-02-18 15:34:00,
2013-02-18 09:39:00,52.5,40.5,29.70,North,0,0.0,0.0,64,0.00,,,0.00,WUHU21623XXSP,2013-02-18 15:39:00,
2013-02-18 09:44:00,53.2,40.9,29.70,North,0,0.0,0.0,63,0.00,,,0.00,WUHU21623XXSP,2013-02-18 15:44:00,
2013-02-18 09:49:00,53.2,40.9,29.70,North,0,0.0,0.0,63,0.00,,,0.00,WUHU21623XXSP,2013-02-18 15:49:00,
2013-02-18 09:54:00,53.2,40.9,29.70,North,0,0.0,0.0,63,0.00,,,0.00,WUHU21623XXSP,2013-02-18 15:54:00,
2013-02-18 09:59:00,53.4,40.9,29.69,North,0,0.0,0.0,63,0.00,,,0.00,WUHU21623XXSP,2013-02-18 15:59:00,
2013-02-18 10:04:00,53.2,40.9,29.70,North,0,0.0,0.0,63,0.00,,,0.00,WUHU21623XXSP,2013-02-18 16:04:00,
2013-02-18 10:09:00,53.2,40.9,29.69,North,0,0.0,0.0,63,0.00,,,0.00,WUHU21623XXSP,2013-02-18 16:09:00,
2013-02-18 10:14:00,53.2,40.9,29.69,North,0,0.0,0.0,63,0.00,,,0.00,WUHU21623XXSP,2013-02-18 16:14:00,
2013-02-18 10:19:00,53.2,41.3,29.69,North,0,0.0,0.0,64,0.00,,,0.00,WUHU21623XXSP,2013-02-18 16:19:00,
2013-02-18 10:24:00,53.4,41.3,29.69,North,0,0.0,0.0,64,0.00,,,0.00,WUHU21623XXSP,2013-02-18 16:24:00,
2013-02-18 10:29:00,53.4,41.5,29.69,North,0,0.0,0.0,64,0.00,,,0.00,WUHU21623XXSP,2013-02-18 16:29:00,
2013-02-18 10:34:00,53.4,41.5,29.69,North,0,0.0,0.0,64,0.00,,,0.00,WUHU21623XXSP,2013-02-18 16:34:00,
2013-02-18 10:39:00,53.8,41.8,29.69,North,0,0.0,0.0,64,0.00,,,0.00,WUHU21623XXSP,2013-02-18 16:39:00,
2013-02-18 10:44:00,54.3,42.2,29.69,North,0,0.0,0.0,64,0.00,,,0.00,WUHU21623XXSP,2013-02-18 16:44:00,
2013-02-18 10:49:00,54.5,42.1,29.68,North,0,0.0,0.0,63,0.00,,,0.00,WUHU21623XXSP,2013-02-18 16:49:00,
2013-02-18 10:54:00,54.7,42.1,29.68,North,0,0.0,0.0,64,0.00,,,0.00,WUHU21623XXSP,2013-02-18 16:54:00,
2013-02-18 10:59:00,55.2,43.0,29.68,North,0,0.0,0.0,63,0.00,,,0.00,WUHU21623XXSP,2013-02-18 16:59:00,
2013-02-18 11:04:00,55.6,43.1,29.67,North,0,0.0,0.0,63,0.00,,,0.00,WUHU21623XXSP,2013-02-18 17:04:00,
2013-02-18 11:10:00,56.1,43.3,29.68,North,0,0.0,0.0,62,0.00,,,0.00,WUHU21623XXSP,2013-02-18 17:10:00,
2013-02-18 11:15:00,56.1,43.3,29.68,North,0,0.0,0.0,62,0.00,,,0.00,WUHU21623XXSP,2013-02-18 17:15:00,
2013-02-18 11:20:00,56.3,43.3,29.67,North,0,0.0,0.0,62,0.00,,,0.00,WUHU21623XXSP,2013-02-18 17:20:00,
2013-02-18 11:25:00,56.5,43.6,29.67,North,0,0.0,0.0,62,0.00,,,0.00,WUHU21623XXSP,2013-02-18 17:25:00,
2013-02-18 11:30:00,56.5,43.6,29.67,North,0,0.0,0.0,62,0.00,,,0.00,WUHU21623XXSP,2013-02-18 17:30:00,
2013-02-18 11:35:00,56.5,43.6,29.66,North,0,0.0,0.0,62,0.00,,,0.00,WUHU21623XXSP,2013-02-18 17:35:00,
2013-02-18 11:40:00,56.3,43.4,29.66,North,0,0.0,0.0,62,0.00,,,0.00,WUHU21623XXSP,2013-02-18 17:40:00,
2013-02-18 11:45:00,56.3,43.4,29.66,North,0,0.0,0.0,62,0.00,,,0.00,WUHU21623XXSP,2013-02-18 17:45:00,
2013-02-18 11:50:00,56.3,43.4,29.66,North,0,0.0,0.0,62,0.00,,,0.00,WUHU21623XXSP,2013-02-18 17:50:00,
2013-02-18 11:55:00,56.3,43.4,29.65,North,0,0.0,0.0,63,0.00,,,0.00,WUHU21623XXSP,2013-02-18 17:55:00,
2013-02-18 12:00:00,56.3,43.8,29.65,North,0,0.0,0.0,63,0.00,,,0.00,WUHU21623XXSP,2013-02-18 18:00:00,
2013-02-18 12:05:00,55.9,43.5,29.64,North,0,0.0,0.0,63,0.00,,,0.00,WUHU21623XXSP,2013-02-18 18:05:00,
2013-02-18 12:10:00,55.6,43.5,29.64,North,0,0.0,0.0,64,0.00,,,0.00,WUHU21623XXSP,2013-02-18 18:10:00,
2013-02-18 12:15:00,55.4,43.4,29.63,North,0,0.0,0.0,64,0.00,,,0.00,WUHU21623XXSP,2013-02-18 18:15:00,
2013-02-18 12:20:00,55.0,43.4,29.63,North,0,0.0,0.0,65,0.00,,,0.00,WUHU21623XXSP,2013-02-18 18:20:00,
2013-02-18 12:25:00,55.0,43.8,29.63,North,0,0.0,0.0,66,0.00,,,0.00,WUHU21623XXSP,2013-02-18 18:25:00,
2013-02-18 12:30:00,54.9,44.1,29.63,North,0,0.0,0.0,67,0.00,,,0.00,WUHU21623XXSP,2013-02-18 18:30:00,
2013-02-18 12:35:00,54.7,44.7,29.62,North,0,0.0,0.0,69,0.00,,,0.00,WUHU21623XXSP,2013-02-18 18:35:00,
2013-02-18 12:40:00,54.7,44.7,29.62,North,0,0.0,0.0,69,0.00,,,0.00,WUHU21623XXSP,2013-02-18 18:40:00,
2013-02-18 12:45:00,54.9,44.9,29.62,North,0,0.0,0.0,69,0.00,,,0.00,WUHU21623XXSP,2013-02-18 18:45:00,
2013-02-18 12:50:00,54.9,44.9,29.61,North,0,0.0,0.0,69,0.00,,,0.00,WUHU21623XXSP,2013-02-18 18:50:00,
2013-02-18 12:55:00,55.0,45.5,29.61,North,0,0.0,0.0,70,0.00,,,0.00,WUHU21623XXSP,2013-02-18 18:55:00,
2013-02-18 13:01:00,55.0,45.5,29.61,North,0,0.0,0.0,71,0.00,,,0.00,WUHU21623XXSP,2013-02-18 19:01:00,
2013-02-18 13:06:00,55.0,45.8,29.60,North,0,0.0,0.0,71,0.00,,,0.00,WUHU21623XXSP,2013-02-18 19:06:00,
2013-02-18 13:11:00,55.0,45.8,29.59,North,0,0.0,0.0,72,0.00,,,0.00,WUHU21623XXSP,2013-02-18 19:11:00,
2013-02-18 13:16:00,54.9,46.0,29.59,North,0,0.0,0.0,72,0.00,,,0.00,WUHU21623XXSP,2013-02-18 19:16:00,
2013-02-18 13:21:00,55.2,46.7,29.59,North,0,0.0,0.0,73,0.00,,,0.00,WUHU21623XXSP,2013-02-18 19:21:00,
2013-02-18 13:26:00,55.4,46.5,29.58,North,0,0.0,0.0,72,0.00,,,0.00,WUHU21623XXSP,2013-02-18 19:26:00,
2013-02-18 13:31:00,55.2,46.4,29.58,North,0,0.0,0.0,72,0.00,,,0.00,WUHU21623XXSP,2013-02-18 19:31:00,
2013-02-18 13:36:00,55.2,46.4,29.58,North,0,0.0,0.0,72,0.00,,,0.00,WUHU21623XXSP,2013-02-18 19:36:00,
2013-02-18 13:41:00,55.4,46.5,29.58,North,0,0.0,0.0,72,0.00,,,0.00,WUHU21623XXSP,2013-02-18 19:41:00,
2013-02-18 13:46:00,55.2,46.4,29.57,North,0,0.0,0.0,72,0.00,,,0.00,WUHU21623XXSP,2013-02-18 19:46:00,
2013-02-18 13:51:00,55.2,46.4,29.57,North,0,0.0,0.0,72,0.00,,,0.00,WUHU21623XXSP,2013-02-18 19:51:00,
2013-02-18 13:56:00,55.0,46.5,29.56,North,0,0.0,0.0,73,0.00,,,0.00,WUHU21623XXSP,2013-02-18 19:56:00,
2013-02-18 14:01:00,55.0,46.5,29.56,North,0,0.0,0.0,73,0.00,,,0.00,WUHU21623XXSP,2013-02-18 20:01:00,
2013-02-18 14:06:00,54.9,46.9,29.55,North,0,0.0,0.0,74,0.00,,,0.00,WUHU21623XXSP,2013-02-18 20:06:00,
2013-02-18 14:11:00,54.7,46.5,29.55,North,0,0.0,0.0,74,0.00,,,0.00,WUHU21623XXSP,2013-02-18 20:11:00,
2013-02-18 14:16:00,54.3,46.9,29.55,North,0,0.0,0.0,76,0.00,,,0.00,WUHU21623XXSP,2013-02-18 20:16:00,
2013-02-18 14:21:00,54.3,46.9,29.55,North,0,0.0,0.0,76,0.00,,,0.00,WUHU21623XXSP,2013-02-18 20:21:00,
2013-02-18 14:26:00,54.0,46.9,29.54,North,0,0.0,0.0,77,0.00,,,0.00,WUHU21623XXSP,2013-02-18 20:26:00,
2013-02-18 14:31:00,53.4,46.8,29.54,North,0,0.0,0.0,78,0.00,,,0.00,WUHU21623XXSP,2013-02-18 20:31:00,
2013-02-18 14:36:00,52.9,46.2,29.54,North,0,0.0,0.0,78,0.00,,,0.00,WUHU21623XXSP,2013-02-18 20:36:00,
2013-02-18 14:41:00,52.5,46.2,29.53,North,0,0.0,0.0,79,0.00,,,0.00,WUHU21623XXSP,2013-02-18 20:41:00,
2013-02-18 14:46:00,52.3,46.4,29.53,North,0,0.0,0.0,80,0.00,,,0.00,WUHU21623XXSP,2013-02-18 20:46:00,
2013-02-18 14:51:00,52.3,46.4,29.53,North,0,0.0,0.0,80,0.00,,,0.00,WUHU21623XXSP,2013-02-18 20:51:00,
2013-02-18 14:56:00,52.2,46.2,29.52,North,0,0.0,0.0,80,0.00,,,0.00,WUHU21623XXSP,2013-02-18 20:56:00,
2013-02-18 15:02:00,52.0,46.3,29.53,North,0,0.0,0.0,81,0.00,,,0.00,WUHU21623XXSP,2013-02-18 21:02:00,
2013-02-18 15:07:00,51.8,46.2,29.52,North,0,0.0,0.0,81,0.00,,,0.00,WUHU21623XXSP,2013-02-18 21:07:00,
2013-02-18 15:12:00,51.6,46.3,29.51,North,0,0.0,0.0,82,0.00,,,0.00,WUHU21623XXSP,2013-02-18 21:12:00,
2013-02-18 15:17:00,51.8,46.5,29.51,North,0,0.0,0.0,82,0.00,,,0.00,WUHU21623XXSP,2013-02-18 21:17:00,
2013-02-18 15:22:00,51.8,46.5,29.50,North,0,0.0,0.0,82,0.00,,,0.00,WUHU21623XXSP,2013-02-18 21:22:00,
2013-02-18 15:27:00,52.0,46.7,29.50,North,0,0.0,0.0,83,0.00,,,0.00,WUHU21623XXSP,2013-02-18 21:27:00,
2013-02-18 15:32:00,51.8,46.8,29.50,North,0,0.0,0.0,83,0.00,,,0.00,WUHU21623XXSP,2013-02-18 21:32:00,
2013-02-18 15:37:00,51.6,46.6,29.50,North,0,0.0,0.0,83,0.00,,,0.00,WUHU21623XXSP,2013-02-18 21:37:00,
2013-02-18 15:42:00,51.6,46.6,29.52,North,0,0.0,0.0,83,0.00,,,0.00,WUHU21623XXSP,2013-02-18 21:42:00,
2013-02-18 15:47:00,51.1,46.1,29.56,North,0,0.0,0.0,83,0.00,,,0.00,WUHU21623XXSP,2013-02-18 21:47:00,
2013-02-18 15:52:00,49.8,44.5,29.57,North,0,0.0,0.0,82,0.00,,,0.00,WUHU21623XXSP,2013-02-18 21:52:00,
2013-02-18 15:57:00,48.2,42.9,29.58,North,0,0.0,0.0,82,0.00,,,0.00,WUHU21623XXSP,2013-02-18 21:57:00,
2013-02-18 16:02:00,47.5,42.5,29.58,North,0,0.0,0.0,83,0.00,,,0.00,WUHU21623XXSP,2013-02-18 22:02:00,
2013-02-18 16:07:00,46.8,42.2,29.58,North,0,0.0,0.0,83,0.00,,,0.00,WUHU21623XXSP,2013-02-18 22:07:00,
2013-02-18 16:12:00,45.5,40.7,29.60,North,0,0.0,0.0,83,0.00,,,0.00,WUHU21623XXSP,2013-02-18 22:12:00,
2013-02-18 16:17:00,44.4,39.6,29.61,North,0,0.0,0.0,83,0.00,,,0.00,WUHU21623XXSP,2013-02-18 22:17:00,
2013-02-18 16:22:00,43.2,38.3,29.60,North,0,0.0,0.0,83,0.00,,,0.00,WUHU21623XXSP,2013-02-18 22:22:00,
2013-02-18 16:27:00,42.6,38.1,29.60,North,0,0.0,0.0,84,0.00,,,0.00,WUHU21623XXSP,2013-02-18 22:27:00,
2013-02-18 16:32:00,42.1,37.5,29.61,North,0,0.0,0.0,84,0.00,,,0.00,WUHU21623XXSP,2013-02-18 22:32:00,
2013-02-18 16:37:00,41.5,37.3,29.63,North,0,0.0,0.0,85,0.00,,,0.00,WUHU21623XXSP,2013-02-18 22:37:00,
2013-02-18 16:42:00,41.4,37.3,29.63,North,0,0.0,0.0,85,0.00,,,0.00,WUHU21623XXSP,2013-02-18 22:42:00,
2013-02-18 16:47:00,41.2,37.0,29.64,North,0,0.0,0.0,85,0.00,,,0.00,WUHU21623XXSP,2013-02-18 22:47:00,
2013-02-18 16:52:00,40.6,36.7,29.64,North,0,0.0,0.0,86,0.00,,,0.00,WUHU21623XXSP,2013-02-18 22:52:00,
2013-02-18 16:57:00,40.3,36.4,29.65,North,0,0.0,0.0,86,0.00,,,0.00,WUHU21623XXSP,2013-02-18 22:57:00,
2013-02-18 17:02:00,39.9,36.0,29.65,North,0,0.0,0.0,86,0.00,,,0.00,WUHU21623XXSP,2013-02-18 23:02:00,
2013-02-18 17:07:00,39.9,36.0,29.66,North,0,0.0,0.0,86,0.00,,,0.00,WUHU21623XXSP,2013-02-18 23:07:00,
2013-02-18 17:12:00,39.6,35.7,29.68,North,0,0.0,0.0,86,0.00,,,0.00,WUHU21623XXSP,2013-02-18 23:12:00,
2013-02-18 17:17:00,39.4,35.5,29.68,North,0,0.0,0.0,86,0.00,,,0.00,WUHU21623XXSP,2013-02-18 23:17:00,
2013-02-18 17:22:00,38.8,35.0,29.70,North,0,0.0,0.0,86,0.00,,,0.00,WUHU21623XXSP,2013-02-18 23:22:00,
2013-02-18 17:27:00,38.8,35.0,29.70,North,0,0.0,0.0,86,0.00,,,0.00,WUHU21623XXSP,2013-02-18 23:27:00,
2013-02-18 17:32:00,38.7,34.8,29.71,North,0,0.0,0.0,86,0.00,,,0.00,WUHU21623XXSP,2013-02-18 23:32:00,
2013-02-18 17:38:00,38.5,34.6,29.71,North,0,0.0,0.0,86,0.00,,,0.00,WUHU21623XXSP,2013-02-18 23:38:00,
2013-02-18 17:43:00,38.5,34.6,29.72,North,0,0.0,0.0,86,0.00,,,0.00,WUHU21623XXSP,2013-02-18 23:43:00,
2013-02-18 17:48:00,38.5,34.6,29.73,North,0,0.0,0.0,86,0.00,,,0.00,WUHU21623XXSP,2013-02-18 23:48:00,
2013-02-18 17:53:00,38.5,34.6,29.73,North,0,0.0,0.0,86,0.00,,,0.00,WUHU21623XXSP,2013-02-18 23:53:00,
2013-02-18 17:58:00,38.5,34.3,29.74,North,0,0.0,0.0,85,0.00,,,0.00,WUHU21623XXSP,2013-02-18 23:58:00,
2013-02-18 18:03:00,38.3,34.2,29.74,North,0,0.0,0.0,85,0.00,,,0.00,WUHU21623XXSP,2013-02-19 00:03:00,
2013-02-18 18:08:00,38.3,34.2,29.75,North,0,0.0,0.0,85,0.00,,,0.00,WUHU21623XXSP,2013-02-19 00:08:00,
2013-02-18 18:13:00,38.3,34.2,29.75,North,0,0.0,0.0,85,0.00,,,0.00,WUHU21623XXSP,2013-02-19 00:13:00,
2013-02-18 18:18:00,38.3,34.2,29.75,North,0,0.0,0.0,85,0.00,,,0.00,WUHU21623XXSP,2013-02-19 00:18:00,
2013-02-18 18:23:00,38.5,34.3,29.76,North,0,0.0,0.0,85,0.00,,,0.00,WUHU21623XXSP,2013-02-19 00:23:00,
2013-02-18 18:28:00,38.5,34.3,29.76,North,0,0.0,0.0,85,0.00,,,0.00,WUHU21623XXSP,2013-02-19 00:28:00,
2013-02-18 18:33:00,38.5,34.3,29.76,North,0,0.0,0.0,85,0.00,,,0.00,WUHU21623XXSP,2013-02-19 00:33:00,
2013-02-18 18:38:00,38.5,34.3,29.77,North,0,0.0,0.0,85,0.00,,,0.00,WUHU21623XXSP,2013-02-19 00:38:00,
2013-02-18 18:43:00,38.5,34.3,29.78,North,0,0.0,0.0,85,0.00,,,0.00,WUHU21623XXSP,2013-02-19 00:43:00,
2013-02-18 18:48:00,38.5,34.3,29.78,North,0,0.0,0.0,85,0.00,,,0.00,WUHU21623XXSP,2013-02-19 00:48:00,
2013-02-18 18:53:00,38.3,33.9,29.79,North,0,0.0,0.0,84,0.00,,,0.00,WUHU21623XXSP,2013-02-19 00:53:00,
2013-02-18 18:58:00,38.1,33.4,29.79,North,0,0.0,0.0,83,0.00,,,0.00,WUHU21623XXSP,2013-02-19 00:58:00,
2013-02-18 19:03:00,37.6,32.3,29.80,North,0,0.0,0.0,81,0.00,,,0.00,WUHU21623XXSP,2013-02-19 01:03:00,
2013-02-18 19:09:00,37.2,31.9,29.80,North,0,0.0,0.0,81,0.00,,,0.00,WUHU21623XXSP,2013-02-19 01:09:00,
2013-02-18 19:14:00,36.7,31.4,29.80,North,0,0.0,0.0,81,0.00,,,0.00,WUHU21623XXSP,2013-02-19 01:14:00,
2013-02-18 19:19:00,36.5,31.2,29.81,North,0,0.0,0.0,81,0.00,,,0.00,WUHU21623XXSP,2013-02-19 01:19:00,
2013-02-18 19:24:00,36.3,31.0,29.81,North,0,0.0,0.0,81,0.00,,,0.00,WUHU21623XXSP,2013-02-19 01:24:00,
2013-02-18 19:29:00,36.0,30.7,29.82,North,0,0.0,0.0,81,0.00,,,0.00,WUHU21623XXSP,2013-02-19 01:29:00,
2013-02-18 19:34:00,35.8,30.5,29.82,North,0,0.0,0.0,81,0.00,,,0.00,WUHU21623XXSP,2013-02-19 01:34:00,
2013-02-18 19:39:00,35.4,29.8,29.82,North,0,0.0,0.0,80,0.00,,,0.00,WUHU21623XXSP,2013-02-19 01:39:00,
2013-02-18 19:44:00,35.1,29.7,29.83,North,0,0.0,0.0,80,0.00,,,0.00,WUHU21623XXSP,2013-02-19 01:44:00,
2013-02-18 19:49:00,34.9,29.3,29.83,North,0,0.0,0.0,80,0.00,,,0.00,WUHU21623XXSP,2013-02-19 01:49:00,
2013-02-18 19:54:00,34.9,29.3,29.84,North,0,0.0,0.0,80,0.00,,,0.00,WUHU21623XXSP,2013-02-19 01:54:00,
2013-02-18 19:59:00,34.3,28.9,29.84,North,0,0.0,0.0,79,0.00,,,0.00,WUHU21623XXSP,2013-02-19 01:59:00,
2013-02-18 20:04:00,34.3,28.4,29.85,North,0,0.0,0.0,79,0.00,,,0.00,WUHU21623XXSP,2013-02-19 02:04:00,
2013-02-18 20:09:00,34.3,28.1,29.85,North,0,0.0,0.0,78,0.00,,,0.00,WUHU21623XXSP,2013-02-19 02:09:00,
2013-02-18 20:14:00,34.3,28.1,29.85,North,0,0.0,0.0,78,0.00,,,0.00,WUHU21623XXSP,2013-02-19 02:14:00,
2013-02-18 20:19:00,34.2,27.9,29.86,North,0,0.0,0.0,78,0.00,,,0.00,WUHU21623XXSP,2013-02-19 02:19:00,
2013-02-18 20:24:00,34.2,27.9,29.87,North,0,0.0,0.0,78,0.00,,,0.00,WUHU21623XXSP,2013-02-19 02:24:00,
2013-02-18 20:29:00,34.0,27.9,29.87,North,0,0.0,0.0,78,0.00,,,0.00,WUHU21623XXSP,2013-02-19 02:29:00,
2013-02-18 20:34:00,34.0,27.8,29.87,North,0,0.0,0.0,78,0.00,,,0.00,WUHU21623XXSP,2013-02-19 02:34:00,
2013-02-18 20:39:00,33.8,27.2,29.87,North,0,0.0,0.0,77,0.00,,,0.00,WUHU21623XXSP,2013-02-19 02:39:00,
2013-02-18 20:44:00,33.6,27.2,29.88,North,0,0.0,0.0,77,0.00,,,0.00,WUHU21623XXSP,2013-02-19 02:44:00,
2013-02-18 20:49:00,33.6,26.8,29.88,North,0,0.0,0.0,76,0.00,,,0.00,WUHU21623XXSP,2013-02-19 02:49:00,
2013-02-18 20:54:00,33.4,26.8,29.89,North,0,0.0,0.0,76,0.00,,,0.00,WUHU21623XXSP,2013-02-19 02:54:00,
2013-02-18 20:59:00,33.3,26.6,29.89,North,0,0.0,0.0,75,0.00,,,0.00,WUHU21623XXSP,2013-02-19 02:59:00,
2013-02-18 21:05:00,33.1,25.6,29.89,North,0,0.0,0.0,74,0.00,,,0.00,WUHU21623XXSP,2013-02-19 03:05:00,
2013-02-18 21:10:00,32.7,25.3,29.90,North,0,0.0,0.0,74,0.00,,,0.00,WUHU21623XXSP,2013-02-19 03:10:00,
2013-02-18 21:15:00,32.7,25.3,29.90,North,0,0.0,0.0,74,0.00,,,0.00,WUHU21623XXSP,2013-02-19 03:15:00,
2013-02-18 21:20:00,32.4,25.0,29.91,North,0,0.0,0.0,73,0.00,,,0.00,WUHU21623XXSP,2013-02-19 03:20:00,
2013-02-18 21:25:00,32.2,24.5,29.91,North,0,0.0,0.0,73,0.00,,,0.00,WUHU21623XXSP,2013-02-19 03:25:00,
2013-02-18 21:30:00,32.2,24.5,29.91,North,0,0.0,0.0,73,0.00,,,0.00,WUHU21623XXSP,2013-02-19 03:30:00,
2013-02-18 21:35:00,31.8,23.8,29.92,North,0,0.0,0.0,72,0.00,,,0.00,WUHU21623XXSP,2013-02-19 03:35:00,
2013-02-18 21:40:00,31.6,23.6,29.92,North,0,0.0,0.0,72,0.00,,,0.00,WUHU21623XXSP,2013-02-19 03:40:00,
2013-02-18 21:45:00,31.3,23.0,29.92,North,0,0.0,0.0,71,0.00,,,0.00,WUHU21623XXSP,2013-02-19 03:45:00,
2013-02-18 21:50:00,31.1,23.0,29.92,North,0,0.0,0.0,71,0.00,,,0.00,WUHU21623XXSP,2013-02-19 03:50:00,
2013-02-18 21:55:00,30.9,22.8,29.93,North,0,0.0,0.0,72,0.00,,,0.00,WUHU21623XXSP,2013-02-19 03:55:00,
2013-02-18 22:00:00,30.9,22.9,29.93,North,0,0.0,0.0,72,0.00,,,0.00,WUHU21623XXSP,2013-02-19 04:00:00,
2013-02-18 22:05:00,30.7,22.7,29.93,North,0,0.0,0.0,72,0.00,,,0.00,WUHU21623XXSP,2013-02-19 04:05:00,
2013-02-18 22:10:00,30.7,22.7,29.93,North,0,0.0,0.0,72,0.00,,,0.00,WUHU21623XXSP,2013-02-19 04:10:00,
2013-02-18 22:15:00,30.7,22.7,29.94,North,0,0.0,0.0,73,0.00,,,0.00,WUHU21623XXSP,2013-02-19 04:15:00,
2013-02-18 22:20:00,30.7,23.1,29.94,North,0,0.0,0.0,73,0.00,,,0.00,WUHU21623XXSP,2013-02-19 04:20:00,
2013-02-18 22:25:00,30.7,23.1,29.94,North,0,0.0,0.0,73,0.00,,,0.00,WUHU21623XXSP,2013-02-19 04:25:00,
2013-02-18 22:31:00,30.9,22.9,29.94,North,0,0.0,0.0,72,0.00,,,0.00,WUHU21623XXSP,2013-02-19 04:31:00,
2013-02-18 22:36:00,30.9,22.9,29.94,North,0,0.0,0.0,72,0.00,,,0.00,WUHU21623XXSP,2013-02-19 04:36:00,
2013-02-18 22:41:00,30.7,22.7,29.94,North,0,0.0,0.0,71,0.00,,,0.00,WUHU21623XXSP,2013-02-19 04:41:00,
2013-02-18 22:46:00,30.7,22.4,29.95,North,0,0.0,0.0,71,0.00,,,0.00,WUHU21623XXSP,2013-02-19 04:46:00,
2013-02-18 22:51:00,30.6,22.2,29.95,North,0,0.0,0.0,70,0.00,,,0.00,WUHU21623XXSP,2013-02-19 04:51:00,
2013-02-18 22:56:00,30.2,21.6,29.95,North,0,0.0,0.0,70,0.00,,,0.00,WUHU21623XXSP,2013-02-19 04:56:00,
2013-02-18 23:01:00,30.0,21.0,29.95,North,0,0.0,0.0,69,0.00,,,0.00,WUHU21623XXSP,2013-02-19 05:01:00,
2013-02-18 23:06:00,29.8,20.9,29.96,North,0,0.0,0.0,69,0.00,,,0.00,WUHU21623XXSP,2013-02-19 05:06:00,
2013-02-18 23:08:00,29.7,20.9,29.96,North,0,0.0,0.0,69,0.00,,,0.00,WUHU21623XXSP,2013-02-19 05:08:00,
2013-02-18 23:11:00,29.5,20.6,29.96,North,0,0.0,0.0,69,0.00,,,0.00,WUHU21623XXSP,2013-02-19 05:11:00,
2013-02-18 23:16:00,29.3,20.4,29.96,North,0,0.0,0.0,69,0.00,,,0.00,WUHU21623XXSP,2013-02-19 05:16:00,
2013-02-18 23:21:00,29.1,20.2,29.96,North,0,0.0,0.0,69,0.00,,,0.00,WUHU21623XXSP,2013-02-19 05:21:00,
2013-02-18 23:26:00,29.1,20.2,29.97,North,0,0.0,0.0,69,0.00,,,0.00,WUHU21623XXSP,2013-02-19 05:26:00,
2013-02-18 23:31:00,28.9,20.4,29.97,North,0,0.0,0.0,70,0.00,,,0.00,WUHU21623XXSP,2013-02-19 05:31:00,
2013-02-18 23:36:00,28.8,20.3,29.97,North,0,0.0,0.0,70,0.00,,,0.00,WUHU21623XXSP,2013-02-19 05:36:00,
2013-02-18 23:41:00,28.8,20.3,29.97,North,0,0.0,0.0,70,0.00,,,0.00,WUHU21623XXSP,2013-02-19 05:41:00,
2013-02-18 23:46:00,28.6,20.1,29.98,North,0,0.0,0.0,70,0.00,,,0.00,WUHU21623XXSP,2013-02-19 05:46:00,
2013-02-18 23:51:00,28.4,20.1,29.98,North,0,0.0,0.0,70,0.00,,,0.00,WUHU21623XXSP,2013-02-19 05:51:00,
2013-02-18 23:56:00,28.2,19.4,29.98,North,0,0.0,0.0,70,0.00,,,0.00,WUHU21623XXSP,2013-02-19 05:56:00,